Location: Unspecified
(0.0000°N, 0.0000°E)
Time: 17:25:14
(UTC+00:00)

Vanguard 1 - Pass Details

Date: 15 December 2017
Orbit: 649 x 3834 km, 34.3° (Epoch: 18 January)

Event Time Altitude Azimuth Distance (km) Brightness Sun altitude
Rises 04:13:19 0° 225° (SW) 6,060 13.9 -23.2°
Reaches altitude 10° 04:16:46 10° 222° (SW) 5,394 13.6 -22.5°
Maximum altitude 04:34:53 68° 141° (SE) 3,796 13.1 -18.4°
Drops below altitude 10° 04:58:23 10° 62° (ENE) 6,764 14.9 -13.0°
Sets 05:03:18 0° 60° (ENE) 7,594 15.1 -11.9°
